Location: Bédeille
(43.0872°N, 1.1041°E)
Time: 13:31:03
(UTC+00:00)

YAOGAN 1 - Pass Details

Date: 03 February 2023
Orbit: 616 x 618 km, 97.8° (Epoch: 20 March)

Event Time Altitude Azimuth Distance (km) Brightness Sun altitude
Rises 18:05:36 0° 145° (SE) 2,880 5.8 -10.5°
Reaches altitude 10° 18:07:54 10° 136° (SE) 1,980 4.9 -10.9°
Maximum altitude 18:11:50 36° 70° (ENE) 982 3.1 -11.6°
Drops below altitude 10° 18:15:49 10° 4° (N) 1,994 5.0 -12.3°
Sets 18:18:07 0° 356° (N) 2,904 5.9 -12.7°
